DW0148 Weather Reports


time (UTC)temp
F
wind
direction
speed
knots
gust
knots
rain 1hr
in
rain 24hr
in
rain mn
in
humidity
%
barometer
mb
20260901203525 96 187 0.0 0.0 0.00 0.00 0.00 56 1015.9
20260901203025 96 174 0.0 0.0 0.00 0.00 0.00 56 1015.9
20260901202523 96 187 0.0 0.0 0.00 0.00 0.00 55 1015.9
20260901202022 96 186 0.0 0.0 0.00 0.00 0.00 53 1015.9
20260901201522 95 172 0.0 0.0 0.00 0.00 0.00 56 1015.9
20260901201021 95 162 0.0 0.0 0.00 0.00 0.00 53 1016.3
20260901200519 95 187 0.0 0.0 0.00 0.00 0.00 60 1016.3
20260901200018 95 188 0.0 0.0 0.00 0.00 0.00 59 1016.3
20260901195444 95 188 0.0 0.0 0.00 0.00 0.00 57 1016.3
20260901194943 95 183 0.0 0.0 0.00 0.00 0.00 56 1016.3
20260901194441 95 158 0.0 0.0 0.00 0.00 0.00 55 1016.3
20260901193940 94 150 0.0 0.0 0.00 0.00 0.00 60 1016.3
20260901193407 94 172 0.0 0.0 0.00 0.00 0.00 57 1016.3
20260901192906 94 143 0.0 0.0 0.00 0.00 0.00 59 1016.3
20260901192302 94 190 0.0 0.0 0.00 0.00 0.00 56 1016.3
20260901191801 93 155 0.0 0.0 0.00 0.00 0.00 56 1016.6
20260901191258 93 139 0.0 0.0 0.00 0.00 0.00 57 1016.6
20260901190756 93 140 0.0 0.0 0.00 0.00 0.00 56 1016.6
20260901190254 93 139 0.0 0.0 0.00 0.00 0.00 59 1016.6
20260901185753 93 143 0.0 0.0 0.00 0.00 0.00 59 1016.6
20260901185252 93 150 0.0 0.0 0.00 0.00 0.00 60 1016.9
20260901184751 93 188 0.0 0.0 0.00 0.00 0.00 57 1016.9
20260901184250 93 141 0.0 0.0 0.00 0.00 0.00 57 1016.9
20260901183748 94 139 0.0 0.0 0.00 0.00 0.00 56 1016.9
20260901183247 93 169 0.0 0.0 0.00 0.00 0.00 58 1016.9
20260901182745 93 181 0.0 0.0 0.00 0.00 0.00 59 1016.9
20260901182243 93 177 0.0 0.0 0.00 0.00 0.00 58 1017.3
20260901181741 93 142 0.0 0.0 0.00 0.00 0.00 56 1017.3
20260901181240 93 190 0.0 0.0 0.00 0.00 0.00 60 1017.3
20260901180739 93 142 0.0 0.0 0.00 0.00 0.00 58 1017.3
20260901180237 93 184 0.0 0.0 0.00 0.00 0.00 57 1017.3
20260901175736 93 185 0.0 0.0 0.00 0.00 0.00 60 1017.3
20260901175235 92 185 0.0 0.0 0.00 0.00 0.00 58 1017.3
20260901174734 92 166 0.0 0.0 0.00 0.00 0.00 56 1017.3
20260901174201 92 167 0.0 0.0 0.00 0.00 0.00 60 1017.6
20260901173700 92 181 0.0 0.0 0.00 0.00 0.00 57 1017.6